Fremont, MI

9:41 PM EDT on July 25, 2017 (GMT -0400)
Fremont

Weather History for KFFX - September, 2013

Change the Weather History Date:

Tuesday, September 24, 2013

  Actual Average (KMKG) Record (KMKG)
Temperature  
Mean Temperature 54 °F -  
Max Temperature 66 °F 65 °F 86 °F (2007)
Min Temperature 42 °F 45 °F 28 °F (1950)
Degree Days  
Heating Degree Days 11    
Growing Degree Days 4 (Base 50)    
Moisture  
Dew Point 45 °F    
Average Humidity 77    
Maximum Humidity 100    
Minimum Humidity 46    
Precipitation  
Precipitation 0.00 in - - ()
Sea Level Pressure  
Sea Level Pressure 30.07 in    
Wind  
Wind Speed 5 mph (East)    
Max Wind Speed 8 mph    
Max Gust Speed -    
Visibility 10 miles    
Events      
Averages and records for this station are not official NWS values.
T = Trace of Precipitation, MM = Missing Value Source: NWS Daily Summary

Daily Weather History Graph

Daily Weather History Graph

Search for Another Location

Airport or City:

Trip Planner

Search our weather history database for the weather conditions in past years. The results will help you decide how hot, cold, wet, or windy it might be!

Date:

Astronomy

Sep. 24, 2013 Rise Set
Actual Time 7:33 AM EDT 7:37 PM EDT
Civil Twilight 7:05 AM EDT 8:05 PM EDT
Nautical Twilight 6:31 AM EDT 8:38 PM EDT
Astronomical Twilight 5:57 AM EDT 9:12 PM EDT
Moon 10:45 PM EDT (9/24) 12:56 PM EDT (9/24)
Length of Visible Light 13h 00m
Length of Day
12h 03m
Waning Gibbous, 73% of the Moon is Illuminated
Sep 24
Waning Gibbous
Sep 26
Last Quarter
Oct 4
New
Oct 11
First Quarter
Oct 18
Full

Hourly Weather History & Observations

Time (EDT) Temp. Windchill Dew Point Humidity Pressure Visibility Wind Dir Wind Speed Gust Speed Precip Events Conditions
12:16 AM 46.4 °F 44.3 °F 42.8 °F 87% 30.12 in 10.0 mi East 4.6 mph - N/A   Clear
12:36 AM 46.4 °F 44.3 °F 42.8 °F 87% 30.11 in 10.0 mi East 4.6 mph - N/A   Clear
12:56 AM 46.4 °F 44.3 °F 42.8 °F 87% 30.12 in 10.0 mi East 4.6 mph - N/A   Clear
1:16 AM 46.4 °F 44.3 °F 42.8 °F 87% 30.11 in 10.0 mi East 4.6 mph - N/A   Clear
1:36 AM 46.4 °F 45.2 °F 42.8 °F 87% 30.11 in 10.0 mi East 3.5 mph - N/A   Clear
1:56 AM 46.4 °F 44.3 °F 42.8 °F 87% 30.11 in 10.0 mi East 4.6 mph - N/A   Clear
2:36 AM 46.4 °F 44.3 °F 42.8 °F 87% 30.11 in 10.0 mi East 4.6 mph - N/A   Clear
2:56 AM 46.4 °F 44.3 °F 42.8 °F 87% 30.11 in 10.0 mi East 4.6 mph - N/A   Clear
3:16 AM 46.4 °F 44.3 °F 42.8 °F 87% 30.11 in 10.0 mi East 4.6 mph - N/A   Clear
3:36 AM 44.6 °F 43.1 °F 42.8 °F 93% 30.11 in 10.0 mi East 3.5 mph - N/A   Clear
3:56 AM 44.6 °F 42.2 °F 42.8 °F 93% 30.11 in 10.0 mi East 4.6 mph - N/A   Clear
4:16 AM 44.6 °F 42.2 °F 42.8 °F 93% 30.11 in 10.0 mi East 4.6 mph - N/A   Clear
4:41 AM 44.6 °F 41.4 °F 42.8 °F 93% 30.12 in 10.0 mi East 5.8 mph - N/A   Clear
5:01 AM 44.6 °F 41.4 °F 42.8 °F 93% 30.12 in 10.0 mi East 5.8 mph - N/A   Clear
5:17 AM 44.6 °F 41.4 °F 42.8 °F 93% 30.12 in 10.0 mi East 5.8 mph - N/A   Clear
5:42 AM 44.6 °F 41.4 °F 42.8 °F 93% 30.12 in 10.0 mi East 5.8 mph - N/A   Clear
5:58 AM 42.8 °F 39.3 °F 42.8 °F 100% 30.12 in 10.0 mi East 5.8 mph - N/A   Clear
6:16 AM 42.8 °F 39.3 °F 42.8 °F 100% 30.12 in 10.0 mi East 5.8 mph - N/A   Clear
6:36 AM 42.8 °F 40.1 °F 42.8 °F 100% 30.13 in 10.0 mi East 4.6 mph - N/A   Clear
6:56 AM 42.8 °F 39.3 °F 42.8 °F 100% 30.14 in 10.0 mi East 5.8 mph - N/A   Clear
7:16 AM 42.8 °F 39.3 °F 42.8 °F 100% 30.14 in 10.0 mi East 5.8 mph - N/A   Clear
7:36 AM 42.8 °F 39.3 °F 42.8 °F 100% 30.14 in 10.0 mi East 5.8 mph - N/A   Clear
8:00 AM 42.8 °F 40.1 °F 42.8 °F 100% 30.14 in 10.0 mi East 4.6 mph - N/A   Clear
8:20 AM 42.8 °F 40.1 °F 42.8 °F 100% 30.14 in 10.0 mi East 4.6 mph - N/A   Clear
8:40 AM 44.6 °F 43.1 °F 42.8 °F 93% 30.14 in 10.0 mi East 3.5 mph - N/A   Clear
8:56 AM 46.4 °F 44.3 °F 44.6 °F 93% 30.14 in 10.0 mi East 4.6 mph - N/A   Clear
9:16 AM 48.2 °F - 44.6 °F 87% 30.14 in 10.0 mi East 4.6 mph - N/A   Clear
9:56 AM 51.8 °F - 46.4 °F 82% 30.14 in 10.0 mi ESE 3.5 mph - N/A   Clear
10:36 AM 55.4 °F - 46.4 °F 72% 30.13 in 10.0 mi ESE 5.8 mph - N/A   Clear
11:16 AM 57.2 °F - 46.4 °F 67% 30.12 in 10.0 mi ESE 5.8 mph - N/A   Clear
11:56 AM 59.0 °F - 46.4 °F 63% 30.11 in 10.0 mi SE 4.6 mph - N/A   Clear
12:16 PM 60.8 °F - 44.6 °F 55% 30.10 in 10.0 mi SE 5.8 mph - N/A   Clear
12:37 PM 60.8 °F - 46.4 °F 59% 30.09 in 10.0 mi SE 6.9 mph - N/A   Clear
12:57 PM 60.8 °F - 44.6 °F 55% 30.09 in 10.0 mi SSE 5.8 mph - N/A   Clear
1:17 PM 62.6 °F - 44.6 °F 52% 30.08 in 10.0 mi ESE 4.6 mph - N/A   Clear
1:37 PM 62.6 °F - 44.6 °F 52% 30.07 in 10.0 mi ESE 5.8 mph - N/A   Clear
2:00 PM 62.6 °F - 44.6 °F 52% 30.06 in 10.0 mi Calm Calm - N/A   Clear
2:17 PM 64.4 °F - 46.4 °F 52% 30.05 in 10.0 mi East 6.9 mph - N/A   Clear
2:57 PM 64.4 °F - 46.4 °F 52% 30.05 in 10.0 mi ESE 6.9 mph - N/A   Clear
3:22 PM 64.4 °F - 44.6 °F 49% 30.04 in 10.0 mi East 3.5 mph - N/A   Clear
3:37 PM 64.4 °F - 44.6 °F 49% 30.04 in 10.0 mi ESE 6.9 mph - N/A   Clear
3:57 PM 64.4 °F - 44.6 °F 49% 30.03 in 10.0 mi ENE 6.9 mph - N/A   Clear
4:17 PM 66.2 °F - 44.6 °F 46% 30.03 in 10.0 mi ESE 4.6 mph - N/A   Clear
4:36 PM 66.2 °F - 44.6 °F 46% 30.02 in 10.0 mi East 8.1 mph - N/A   Clear
4:56 PM 66.2 °F - 46.4 °F 49% 30.01 in 10.0 mi East 6.9 mph - N/A   Clear
5:19 PM 66.2 °F - 46.4 °F 49% 30.02 in 10.0 mi East 6.9 mph - N/A   Clear
5:40 PM 66.2 °F - 46.4 °F 49% 30.01 in 10.0 mi East 6.9 mph - N/A   Clear
5:56 PM 66.2 °F - 46.4 °F 49% 30.02 in 10.0 mi ESE 5.8 mph - N/A   Clear
6:16 PM 64.4 °F - 46.4 °F 52% 30.01 in 10.0 mi East 6.9 mph - N/A   Clear
6:56 PM 62.6 °F - 46.4 °F 55% 30.00 in 10.0 mi East 4.6 mph - N/A   Clear
7:16 PM 62.6 °F - 46.4 °F 55% 30.00 in 10.0 mi East 3.5 mph - N/A   Clear
7:36 PM 59.0 °F - 48.2 °F 67% 30.00 in 10.0 mi Calm Calm - N/A   Clear
7:56 PM 55.4 °F - 50.0 °F 82% 30.00 in 10.0 mi Calm Calm - N/A   Clear
8:16 PM 55.4 °F - 50.0 °F 82% 30.00 in 7.0 mi Calm Calm - N/A   Clear
8:36 PM 51.8 °F - 48.2 °F 88% 30.00 in 10.0 mi Calm Calm - N/A   Clear
9:16 PM 51.8 °F - 50.0 °F 94% 30.01 in 10.0 mi Calm Calm - N/A   Clear
9:41 PM 50.0 °F - 48.2 °F 94% 30.01 in 10.0 mi Calm Calm - N/A   Clear
10:36 PM 50.0 °F - 50.0 °F 100% 30.00 in 7.0 mi Calm Calm - N/A   Clear
10:58 PM 50.0 °F - 50.0 °F 100% 30.00 in 7.0 mi ENE 3.5 mph - N/A   Clear
11:16 PM 51.8 °F - 50.0 °F 94% 30.00 in 10.0 mi East 4.6 mph - N/A   Clear
11:36 PM 51.8 °F - 48.2 °F 88% 30.00 in 10.0 mi East 4.6 mph - N/A   Clear
11:58 PM 50.0 °F - 48.2 °F 94% 30.00 in 10.0 mi East 5.8 mph - N/A   Clear